Time,TemperatureF,DewpointF,PressureIn,WindDirection,WindDirectionDegrees,WindSpeedMPH,WindSpeedGustMPH,Humidity,HourlyPrecipIn,Conditions,Clouds,dailyrainin,SoftwareType,DateUTC
2013-09-21 00:00:00,64.5,57.1,29.73,WNW,290,1.0,5.0,77,0.00,,,0.00,Wunderground v.1.13,2013-09-21 07:00:00,
2013-09-21 00:05:00,64.5,57.1,29.73,NNW,348,1.0,1.0,77,0.00,,,0.00,Wunderground v.1.13,2013-09-21 07:05:00,
2013-09-21 00:15:00,64.7,57.0,29.73,WNW,287,1.0,1.0,76,0.00,,,0.00,Wunderground v.1.13,2013-09-21 07:15:00,
2013-09-21 00:20:00,64.8,57.1,29.73,NW,313,1.0,1.0,76,0.00,,,0.00,Wunderground v.1.13,2013-09-21 07:20:00,
2013-09-21 00:25:00,64.8,56.7,29.73,NNE,20,1.0,1.0,75,0.00,,,0.00,Wunderground v.1.13,2013-09-21 07:25:00,
2013-09-21 00:30:00,64.8,56.7,29.73,NE,46,0.0,4.0,75,0.00,,,0.00,Wunderground v.1.13,2013-09-21 07:30:00,
2013-09-21 00:40:00,64.8,57.1,29.73,WNW,303,0.0,7.0,76,0.00,,,0.00,Wunderground v.1.13,2013-09-21 07:40:00,
2013-09-21 00:45:00,64.3,56.2,29.73,ENE,67,0.0,3.0,75,0.00,,,-99.99,WeatherLink 5.7,2013-09-21 07:45:00,
2013-09-21 00:50:00,64.8,57.1,29.73,North,360,0.0,7.0,76,0.00,,,0.00,Wunderground v.1.13,2013-09-21 07:50:00,
2013-09-21 00:55:00,64.7,57.3,29.73,North,360,0.0,7.0,77,0.00,,,0.00,Wunderground v.1.13,2013-09-21 07:55:00,
2013-09-21 01:00:00,64.5,57.1,29.73,North,360,0.0,7.0,77,0.00,,,0.00,Wunderground v.1.13,2013-09-21 08:00:00,
2013-09-21 01:05:00,64.3,56.9,29.73,North,360,0.0,1.0,77,0.00,,,0.00,Wunderground v.1.13,2013-09-21 08:05:00,
2013-09-21 01:15:00,64.2,56.8,29.73,NNE,29,0.0,1.0,77,0.00,,,0.00,Wunderground v.1.13,2013-09-21 08:15:00,
2013-09-21 01:25:00,63.9,56.5,29.73,NNW,345,0.0,1.0,77,0.00,,,0.00,Wunderground v.1.13,2013-09-21 08:25:00,
2013-09-21 01:30:00,64.0,56.6,29.73,NE,50,0.0,1.0,77,0.00,,,0.00,Wunderground v.1.13,2013-09-21 08:30:00,
2013-09-21 01:35:00,64.0,56.6,29.73,ENE,67,0.0,3.0,77,0.00,,,0.00,Wunderground v.1.13,2013-09-21 08:35:00,
2013-09-21 01:40:00,64.2,56.5,29.73,ENE,67,0.0,3.0,76,0.00,,,0.00,Wunderground v.1.13,2013-09-21 08:40:00,
2013-09-21 01:45:00,64.3,56.2,29.73,ENE,74,0.0,3.0,75,0.00,,,0.00,Wunderground v.1.13,2013-09-21 08:45:00,
2013-09-21 01:55:00,64.5,56.4,29.73,ENE,74,0.0,3.0,75,0.00,,,0.00,Wunderground v.1.13,2013-09-21 08:55:00,
2013-09-21 02:00:00,64.5,56.0,29.72,ENE,74,0.0,3.0,74,0.00,,,0.00,Wunderground v.1.13,2013-09-21 09:00:00,
2013-09-21 02:10:00,64.8,56.3,29.72,ENE,74,0.0,1.0,74,0.00,,,0.00,Wunderground v.1.13,2013-09-21 09:10:00,
2013-09-21 02:15:00,64.8,55.9,29.72,ENE,74,0.0,1.0,73,0.00,,,0.00,Wunderground v.1.13,2013-09-21 09:15:00,
2013-09-21 02:20:00,65.0,56.1,29.72,ENE,74,0.0,1.0,73,0.00,,,0.00,Wunderground v.1.13,2013-09-21 09:20:00,
2013-09-21 02:30:00,65.2,56.3,29.72,ENE,74,0.0,1.0,73,0.00,,,0.00,Wunderground v.1.13,2013-09-21 09:30:00,
2013-09-21 02:35:00,65.2,56.3,29.72,NE,52,0.0,2.0,73,0.00,,,0.00,Wunderground v.1.13,2013-09-21 09:35:00,
2013-09-21 02:40:00,65.2,56.3,29.72,ENE,61,0.0,2.0,73,0.00,,,0.00,Wunderground v.1.13,2013-09-21 09:40:00,
2013-09-21 02:45:00,65.3,56.4,29.72,ENE,59,0.0,2.0,73,0.00,,,0.00,Wunderground v.1.13,2013-09-21 09:45:00,
2013-09-21 02:50:00,65.3,56.4,29.72,ENE,59,0.0,2.0,73,0.00,,,0.00,Wunderground v.1.13,2013-09-21 09:50:00,
2013-09-21 02:55:00,65.3,56.0,29.72,ENE,59,0.0,2.0,72,0.00,,,0.00,Wunderground v.1.13,2013-09-21 09:55:00,
2013-09-21 03:00:00,63.7,57.8,29.72,ENE,67,0.0,1.0,81,0.00,,,-99.99,WeatherLink 5.7,2013-09-21 10:00:00,
2013-09-21 03:05:00,65.3,56.0,29.72,ENE,59,0.0,1.0,72,0.00,,,0.00,Wunderground v.1.13,2013-09-21 10:05:00,
2013-09-21 03:10:00,65.3,56.0,29.72,ENE,59,0.0,1.0,72,0.00,,,0.00,Wunderground v.1.13,2013-09-21 10:10:00,
2013-09-21 03:15:00,65.3,56.4,29.72,ENE,60,0.0,1.0,73,0.00,,,0.00,Wunderground v.1.13,2013-09-21 10:15:00,
2013-09-21 03:20:00,65.2,57.1,29.72,ENE,60,0.0,1.0,75,0.00,,,0.00,Wunderground v.1.13,2013-09-21 10:20:00,
2013-09-21 03:25:00,65.0,56.9,29.72,ENE,60,0.0,1.0,75,0.00,,,0.00,Wunderground v.1.13,2013-09-21 10:25:00,
2013-09-21 03:30:00,64.7,57.0,29.72,ENE,60,0.0,1.0,76,0.00,,,0.00,Wunderground v.1.13,2013-09-21 10:30:00,
2013-09-21 03:35:00,64.5,57.5,29.72,ENE,60,0.0,2.0,78,0.00,,,0.00,Wunderground v.1.13,2013-09-21 10:35:00,
2013-09-21 03:40:00,64.3,57.3,29.72,ENE,60,0.0,2.0,78,0.00,,,0.00,Wunderground v.1.13,2013-09-21 10:40:00,
2013-09-21 03:45:00,64.2,57.5,29.72,ENE,60,0.0,2.0,79,0.00,,,0.00,Wunderground v.1.13,2013-09-21 10:45:00,
2013-09-21 03:50:00,64.0,57.7,29.72,ENE,60,0.0,2.0,80,0.00,,,0.00,Wunderground v.1.13,2013-09-21 10:50:00,
2013-09-21 03:55:00,63.9,57.6,29.72,ENE,60,0.0,2.0,80,0.00,,,0.00,Wunderground v.1.13,2013-09-21 10:55:00,
2013-09-21 04:00:00,63.9,58.0,29.72,ENE,60,0.0,2.0,81,0.00,,,0.00,Wunderground v.1.13,2013-09-21 11:00:00,
2013-09-21 04:10:00,63.7,58.1,29.72,ENE,60,0.0,1.0,82,0.00,,,0.00,Wunderground v.1.13,2013-09-21 11:10:00,
2013-09-21 04:15:00,63.5,57.9,29.72,ENE,61,0.0,1.0,82,0.00,,,0.00,Wunderground v.1.13,2013-09-21 11:15:00,
2013-09-21 04:20:00,63.5,57.9,29.72,ENE,61,0.0,1.0,82,0.00,,,0.00,Wunderground v.1.13,2013-09-21 11:20:00,
2013-09-21 04:25:00,63.5,57.9,29.72,ENE,61,0.0,1.0,82,0.00,,,0.00,Wunderground v.1.13,2013-09-21 11:25:00,
2013-09-21 04:30:00,63.7,58.1,29.71,ENE,61,0.0,1.0,82,0.00,,,0.00,Wunderground v.1.13,2013-09-21 11:30:00,
2013-09-21 04:35:00,63.7,57.8,29.71,East,79,0.0,2.0,81,0.00,,,0.00,Wunderground v.1.13,2013-09-21 11:35:00,
2013-09-21 04:45:00,63.9,58.0,29.71,East,81,0.0,2.0,81,0.00,,,0.00,Wunderground v.1.13,2013-09-21 11:45:00,
2013-09-21 04:50:00,64.0,58.1,29.71,NE,36,0.0,2.0,81,0.00,,,0.00,Wunderground v.1.13,2013-09-21 11:50:00,
2013-09-21 04:55:00,64.0,57.7,29.71,ENE,76,0.0,2.0,80,0.00,,,0.00,Wunderground v.1.13,2013-09-21 11:55:00,
2013-09-21 05:00:00,64.0,57.4,29.71,NW,320,0.0,2.0,79,0.00,,,0.00,Wunderground v.1.13,2013-09-21 12:00:00,
2013-09-21 05:10:00,63.9,57.6,29.71,NNE,13,0.0,4.0,80,0.00,,,0.00,Wunderground v.1.13,2013-09-21 12:10:00,
2013-09-21 05:15:00,62.6,56.0,29.71,SSE,157,0.0,1.0,79,0.00,,,-99.99,WeatherLink 5.7,2013-09-21 12:15:00,
2013-09-21 05:20:00,63.7,57.1,29.71,North,11,0.0,4.0,79,0.00,,,0.00,Wunderground v.1.13,2013-09-21 12:20:00,
2013-09-21 05:25:00,63.5,56.9,29.71,North,355,0.0,4.0,79,0.00,,,0.00,Wunderground v.1.13,2013-09-21 12:25:00,
2013-09-21 05:30:00,63.4,56.8,29.72,North,355,0.0,4.0,79,0.00,,,0.00,Wunderground v.1.13,2013-09-21 12:30:00,
2013-09-21 05:35:00,63.4,56.8,29.72,NNW,347,0.0,2.0,79,0.00,,,0.00,Wunderground v.1.13,2013-09-21 12:35:00,
2013-09-21 05:40:00,63.4,56.8,29.72,East,82,0.0,2.0,79,0.00,,,0.00,Wunderground v.1.13,2013-09-21 12:40:00,
2013-09-21 05:45:00,63.4,56.8,29.72,East,82,0.0,2.0,79,0.00,,,0.00,Wunderground v.1.13,2013-09-21 12:45:00,
2013-09-21 05:55:00,63.1,56.5,29.72,ENE,67,0.0,2.0,79,0.00,,,0.00,Wunderground v.1.13,2013-09-21 12:55:00,
2013-09-21 06:00:00,62.9,56.3,29.71,SSE,147,0.0,2.0,79,0.00,,,0.00,Wunderground v.1.13,2013-09-21 13:00:00,
2013-09-21 06:10:00,62.7,56.1,29.71,SSE,147,0.0,3.0,79,0.00,,,0.00,Wunderground v.1.13,2013-09-21 13:10:00,
2013-09-21 06:15:00,62.6,56.0,29.71,SSE,147,0.0,3.0,79,0.00,,,0.00,Wunderground v.1.13,2013-09-21 13:15:00,
2013-09-21 06:20:00,62.4,56.1,29.71,SSE,147,0.0,3.0,80,0.00,,,0.00,Wunderground v.1.13,2013-09-21 13:20:00,
2013-09-21 06:30:00,62.1,55.9,29.72,NE,43,0.0,3.0,80,0.00,,,0.00,Wunderground v.1.13,2013-09-21 13:30:00,
2013-09-21 06:35:00,62.1,56.2,29.72,NE,43,0.0,2.0,81,0.00,,,0.00,Wunderground v.1.13,2013-09-21 13:35:00,
2013-09-21 06:40:00,62.0,56.1,29.72,NE,43,0.0,2.0,81,0.00,,,0.00,Wunderground v.1.13,2013-09-21 13:40:00,
2013-09-21 06:45:00,62.1,56.2,29.72,NE,43,0.0,2.0,81,0.00,,,0.00,Wunderground v.1.13,2013-09-21 13:45:00,
2013-09-21 06:50:00,62.1,56.2,29.72,NE,43,0.0,2.0,81,0.00,,,0.00,Wunderground v.1.13,2013-09-21 13:50:00,
2013-09-21 07:00:00,62.0,56.1,29.72,NE,43,0.0,2.0,81,0.00,,,0.00,Wunderground v.1.13,2013-09-21 14:00:00,
2013-09-21 07:10:00,62.0,56.1,29.72,NE,43,0.0,0.0,81,0.00,,,0.00,Wunderground v.1.13,2013-09-21 14:10:00,
2013-09-21 07:15:00,62.0,56.1,29.72,NE,43,0.0,0.0,81,0.00,,,0.00,Wunderground v.1.13,2013-09-21 14:15:00,
2013-09-21 07:20:00,62.0,56.1,29.72,NE,43,0.0,0.0,81,0.00,,,0.00,Wunderground v.1.13,2013-09-21 14:20:00,
2013-09-21 07:25:00,62.1,56.2,29.72,NE,43,0.0,0.0,81,0.00,,,0.00,Wunderground v.1.13,2013-09-21 14:25:00,
2013-09-21 07:30:00,63.2,56.2,29.72,ENE,67,0.0,2.0,78,0.00,,,-99.99,WeatherLink 5.7,2013-09-21 14:30:00,
2013-09-21 07:35:00,62.1,55.9,29.72,NE,43,0.0,1.0,80,0.00,,,0.00,Wunderground v.1.13,2013-09-21 14:35:00,
2013-09-21 07:40:00,62.3,55.7,29.72,NE,43,0.0,1.0,79,0.00,,,0.00,Wunderground v.1.13,2013-09-21 14:40:00,
2013-09-21 07:45:00,62.3,55.7,29.72,NE,43,0.0,1.0,79,0.00,,,0.00,Wunderground v.1.13,2013-09-21 14:45:00,
2013-09-21 07:50:00,62.1,55.5,29.72,NE,43,0.0,1.0,79,0.00,,,0.00,Wunderground v.1.13,2013-09-21 14:50:00,
2013-09-21 07:55:00,62.1,55.9,29.72,NE,43,0.0,1.0,80,0.00,,,0.00,Wunderground v.1.13,2013-09-21 14:55:00,
2013-09-21 08:00:00,62.0,55.8,29.72,NE,43,0.0,1.0,80,0.00,,,0.00,Wunderground v.1.13,2013-09-21 15:00:00,
2013-09-21 08:10:00,62.1,56.2,29.72,NE,43,0.0,0.0,81,0.00,,,0.00,Wunderground v.1.13,2013-09-21 15:10:00,
2013-09-21 08:15:00,62.3,56.4,29.73,NE,43,0.0,0.0,81,0.00,,,0.00,Wunderground v.1.13,2013-09-21 15:15:00,
2013-09-21 08:20:00,62.6,56.7,29.73,NE,43,0.0,0.0,81,0.00,,,0.00,Wunderground v.1.13,2013-09-21 15:20:00,
2013-09-21 08:25:00,62.9,56.6,29.73,ENE,59,0.0,1.0,80,0.00,,,0.00,Wunderground v.1.13,2013-09-21 15:25:00,
2013-09-21 08:30:00,63.2,56.2,29.72,ENE,59,0.0,2.0,78,0.00,,,0.00,Wunderground v.1.13,2013-09-21 15:30:00,
2013-09-21 08:35:00,63.4,56.1,29.72,ENE,63,1.0,1.0,77,0.00,,,0.00,Wunderground v.1.13,2013-09-21 15:35:00,
2013-09-21 08:45:00,63.7,56.0,29.72,NW,324,0.0,2.0,76,0.00,,,0.00,Wunderground v.1.13,2013-09-21 15:45:00,
2013-09-21 08:50:00,63.9,55.8,29.72,East,80,0.0,2.0,75,0.00,,,0.00,Wunderground v.1.13,2013-09-21 15:50:00,
2013-09-21 08:55:00,64.2,56.1,29.72,NE,42,0.0,2.0,75,0.00,,,0.00,Wunderground v.1.13,2013-09-21 15:55:00,
2013-09-21 09:00:00,64.3,55.8,29.73,ENE,72,0.0,2.0,74,0.00,,,0.00,Wunderground v.1.13,2013-09-21 16:00:00,
2013-09-21 09:05:00,64.7,56.2,29.73,ENE,69,0.0,5.0,74,0.00,,,0.00,Wunderground v.1.13,2013-09-21 16:05:00,
2013-09-21 09:10:00,65.2,56.3,29.73,ENE,69,0.0,5.0,73,0.00,,,0.00,Wunderground v.1.13,2013-09-21 16:10:00,
2013-09-21 09:15:00,66.0,55.5,29.73,East,90,0.0,2.0,69,0.00,,,-99.99,WeatherLink 5.7,2013-09-21 16:15:00,
2013-09-21 09:20:00,65.6,55.9,29.73,East,96,0.0,5.0,71,0.00,,,0.00,Wunderground v.1.13,2013-09-21 16:20:00,
2013-09-21 09:25:00,65.8,56.1,29.73,East,97,0.0,5.0,71,0.00,,,0.00,Wunderground v.1.13,2013-09-21 16:25:00,
2013-09-21 09:30:00,65.8,56.1,29.72,East,96,0.0,5.0,71,0.00,,,0.00,Wunderground v.1.13,2013-09-21 16:30:00,
2013-09-21 09:40:00,66.0,55.9,29.72,ESE,103,0.0,3.0,70,0.00,,,0.00,Wunderground v.1.13,2013-09-21 16:40:00,
2013-09-21 09:45:00,66.0,55.9,29.72,East,97,0.0,3.0,70,0.00,,,0.00,Wunderground v.1.13,2013-09-21 16:45:00,
2013-09-21 09:55:00,65.8,55.3,29.72,East,97,0.0,3.0,69,0.00,,,0.00,Wunderground v.1.13,2013-09-21 16:55:00,
2013-09-21 10:00:00,66.0,55.5,29.73,East,97,0.0,3.0,69,0.00,,,0.00,Wunderground v.1.13,2013-09-21 17:00:00,
2013-09-21 10:05:00,66.0,55.1,29.73,East,97,0.0,3.0,68,0.00,,,0.00,Wunderground v.1.13,2013-09-21 17:05:00,
2013-09-21 10:10:00,66.0,55.5,29.73,East,97,0.0,3.0,69,0.00,,,0.00,Wunderground v.1.13,2013-09-21 17:10:00,
2013-09-21 10:15:00,66.0,55.1,29.73,SSE,154,0.0,3.0,68,0.00,,,0.00,Wunderground v.1.13,2013-09-21 17:15:00,
2013-09-21 10:20:00,65.8,54.9,29.73,ESE,119,0.0,3.0,68,0.00,,,0.00,Wunderground v.1.13,2013-09-21 17:20:00,
2013-09-21 10:30:00,65.6,55.2,29.73,ESE,119,0.0,3.0,69,0.00,,,0.00,Wunderground v.1.13,2013-09-21 17:30:00,
2013-09-21 10:35:00,65.6,56.3,29.73,ESE,119,0.0,2.0,72,0.00,,,0.01,Wunderground v.1.13,2013-09-21 17:35:00,
2013-09-21 10:40:00,65.3,56.8,29.73,ESE,119,0.0,2.0,74,0.00,,,0.01,Wunderground v.1.13,2013-09-21 17:40:00,
2013-09-21 10:45:00,64.8,57.4,29.73,ESE,109,0.0,2.0,77,0.05,,,0.02,Wunderground v.1.13,2013-09-21 17:45:00,
2013-09-21 10:50:00,64.3,57.6,29.73,ESE,109,0.0,2.0,79,0.26,,,0.04,Wunderground v.1.13,2013-09-21 17:50:00,
2013-09-21 11:00:00,63.4,57.8,29.75,ESE,109,0.0,2.0,82,0.87,,,0.09,Wunderground v.1.13,2013-09-21 18:00:00,
2013-09-21 11:10:00,62.1,57.9,29.75,ESE,103,0.0,1.0,86,0.26,,,0.21,Wunderground v.1.13,2013-09-21 18:10:00,
2013-09-21 11:15:00,61.6,58.0,29.75,ESE,103,0.0,1.0,88,0.10,,,0.22,Wunderground v.1.13,2013-09-21 18:15:00,
2013-09-21 11:20:00,61.5,58.5,29.75,ESE,103,0.0,1.0,90,0.18,,,0.23,Wunderground v.1.13,2013-09-21 18:20:00,
2013-09-21 11:25:00,61.5,58.8,29.75,ESE,103,0.0,1.0,91,0.30,,,0.25,Wunderground v.1.13,2013-09-21 18:25:00,
2013-09-21 11:30:00,61.5,58.8,29.75,ESE,103,0.0,1.0,91,0.11,,,0.26,Wunderground v.1.13,2013-09-21 18:30:00,
2013-09-21 11:40:00,61.5,59.2,29.75,ESE,103,0.0,1.0,92,0.26,,,0.29,Wunderground v.1.13,2013-09-21 18:40:00,
2013-09-21 11:45:00,61.3,59.0,29.74,NE,49,0.0,1.0,92,0.15,,,0.30,Wunderground v.1.13,2013-09-21 18:45:00,
2013-09-21 11:50:00,61.3,59.0,29.74,NE,49,0.0,1.0,92,0.17,,,0.31,Wunderground v.1.13,2013-09-21 18:50:00,
2013-09-21 11:55:00,61.2,59.2,29.74,East,82,0.0,1.0,93,0.07,,,0.31,Wunderground v.1.13,2013-09-21 18:55:00,
2013-09-21 12:00:00,61.0,59.0,29.75,East,82,0.0,1.0,93,0.06,,,0.32,Wunderground v.1.13,2013-09-21 19:00:00,
2013-09-21 12:10:00,61.0,59.0,29.75,North,9,0.0,1.0,93,0.09,,,0.33,Wunderground v.1.13,2013-09-21 19:10:00,
2013-09-21 12:15:00,61.8,60.1,29.75,NNE,22,0.0,1.0,94,0.08,,,-99.99,WeatherLink 5.7,2013-09-21 19:15:00,
2013-09-21 12:20:00,61.2,59.5,29.74,North,9,0.0,1.0,94,0.04,,,0.33,Wunderground v.1.13,2013-09-21 19:20:00,
2013-09-21 12:25:00,61.2,59.5,29.74,NE,52,0.0,1.0,94,0.00,,,0.33,Wunderground v.1.13,2013-09-21 19:25:00,
2013-09-21 12:30:00,61.3,59.6,29.75,ENE,63,0.0,1.0,94,0.00,,,0.33,Wunderground v.1.13,2013-09-21 19:30:00,
2013-09-21 12:35:00,61.5,59.8,29.75,NW,326,0.0,2.0,94,2.17,,,0.35,Wunderground v.1.13,2013-09-21 19:35:00,
2013-09-21 12:45:00,61.2,59.2,29.75,NNW,340,0.0,2.0,93,0.15,,,0.40,Wunderground v.1.13,2013-09-21 19:45:00,
2013-09-21 12:50:00,61.3,59.6,29.75,NNW,340,0.0,2.0,94,0.07,,,0.40,Wunderground v.1.13,2013-09-21 19:50:00,
2013-09-21 12:55:00,61.3,59.6,29.75,NNW,340,0.0,2.0,94,0.04,,,0.40,Wunderground v.1.13,2013-09-21 19:55:00,
2013-09-21 13:00:00,61.6,59.9,29.75,NNW,340,0.0,2.0,94,0.00,,,0.40,Wunderground v.1.13,2013-09-21 20:00:00,
2013-09-21 13:10:00,61.8,60.1,29.75,NNE,23,0.0,2.0,94,0.00,,,0.41,Wunderground v.1.13,2013-09-21 20:10:00,
2013-09-21 13:15:00,61.8,60.1,29.75,NNE,23,0.0,2.0,94,0.00,,,0.41,Wunderground v.1.13,2013-09-21 20:15:00,
2013-09-21 13:20:00,61.8,60.1,29.75,NW,306,0.0,2.0,94,0.00,,,0.41,Wunderground v.1.13,2013-09-21 20:20:00,
2013-09-21 13:25:00,61.6,59.6,29.75,NW,306,0.0,2.0,93,0.00,,,0.41,Wunderground v.1.13,2013-09-21 20:25:00,
2013-09-21 13:30:00,61.5,59.2,29.75,NW,306,0.0,2.0,92,0.00,,,0.41,Wunderground v.1.13,2013-09-21 20:30:00,
2013-09-21 13:40:00,61.3,59.0,29.75,NW,312,0.0,3.0,92,0.65,,,0.43,Wunderground v.1.13,2013-09-21 20:40:00,
2013-09-21 13:45:00,62.3,60.2,29.73,NW,315,0.0,2.0,93,0.05,,,-99.99,WeatherLink 5.7,2013-09-21 20:45:00,
2013-09-21 13:50:00,61.2,59.2,29.74,NW,312,0.0,3.0,93,0.15,,,0.48,Wunderground v.1.13,2013-09-21 20:50:00,
2013-09-21 13:55:00,61.2,59.2,29.74,NW,312,0.0,3.0,93,0.15,,,0.49,Wunderground v.1.13,2013-09-21 20:55:00,
2013-09-21 14:00:00,61.3,59.6,29.74,NW,312,0.0,3.0,94,0.22,,,0.52,Wunderground v.1.13,2013-09-21 21:00:00,
2013-09-21 14:05:00,61.5,59.8,29.74,NW,312,0.0,0.0,94,0.08,,,0.52,Wunderground v.1.13,2013-09-21 21:05:00,
2013-09-21 14:10:00,61.5,59.8,29.74,NW,312,0.0,0.0,94,0.05,,,0.52,Wunderground v.1.13,2013-09-21 21:10:00,
2013-09-21 14:15:00,61.6,59.9,29.74,NW,312,0.0,0.0,94,0.00,,,0.52,Wunderground v.1.13,2013-09-21 21:15:00,
2013-09-21 14:25:00,61.8,60.1,29.74,NW,312,0.0,0.0,94,0.00,,,0.52,Wunderground v.1.13,2013-09-21 21:25:00,
2013-09-21 14:30:00,61.8,59.8,29.73,NW,312,0.0,0.0,93,0.00,,,0.52,Wunderground v.1.13,2013-09-21 21:30:00,
2013-09-21 14:40:00,62.1,60.4,29.73,NW,312,0.0,2.0,94,0.00,,,0.52,Wunderground v.1.13,2013-09-21 21:40:00,
2013-09-21 14:45:00,62.3,60.2,29.73,NNE,33,0.0,2.0,93,0.00,,,0.52,Wunderground v.1.13,2013-09-21 21:45:00,
2013-09-21 14:50:00,62.7,60.9,29.73,NNE,33,0.0,2.0,94,0.00,,,0.52,Wunderground v.1.13,2013-09-21 21:50:00,
2013-09-21 15:00:00,62.4,59.7,29.73,North,355,0.0,2.0,91,0.00,,,0.52,Wunderground v.1.13,2013-09-21 22:00:00,
2013-09-21 15:05:00,62.4,59.4,29.73,ESE,119,1.0,4.0,90,0.00,,,0.52,Wunderground v.1.13,2013-09-21 22:05:00,
2013-09-21 15:10:00,62.4,59.1,29.73,WSW,255,1.0,4.0,89,0.00,,,0.52,Wunderground v.1.13,2013-09-21 22:10:00,
2013-09-21 15:15:00,62.7,59.1,29.73,South,169,1.0,1.0,88,0.00,,,0.52,Wunderground v.1.13,2013-09-21 22:15:00,
2013-09-21 15:25:00,63.1,58.5,29.73,WNW,301,1.0,4.0,85,0.00,,,0.52,Wunderground v.1.13,2013-09-21 22:25:00,
2013-09-21 15:30:00,63.2,57.3,29.73,WNW,293,1.0,4.0,81,0.00,,,0.52,Wunderground v.1.13,2013-09-21 22:30:00,
2013-09-21 15:40:00,63.7,58.1,29.73,ENE,65,1.0,1.0,82,0.00,,,0.52,Wunderground v.1.13,2013-09-21 22:40:00,
2013-09-21 15:45:00,63.9,56.9,29.72,NNE,21,1.0,1.0,78,0.00,,,0.52,Wunderground v.1.13,2013-09-21 22:45:00,
2013-09-21 15:50:00,64.0,56.3,29.72,NNW,337,1.0,7.0,76,0.00,,,0.52,Wunderground v.1.13,2013-09-21 22:50:00,
2013-09-21 15:55:00,64.0,55.2,29.72,ENE,78,1.0,7.0,73,0.00,,,0.52,Wunderground v.1.13,2013-09-21 22:55:00,
2013-09-21 16:00:00,64.7,53.9,29.73,NW,315,2.0,7.0,68,0.00,,,-99.99,WeatherLink 5.7,2013-09-21 23:00:00,
2013-09-21 16:05:00,64.2,55.4,29.73,East,82,1.0,11.0,73,0.00,,,0.52,Wunderground v.1.13,2013-09-21 23:05:00,
2013-09-21 16:10:00,64.2,55.4,29.73,East,92,1.0,11.0,73,0.00,,,0.52,Wunderground v.1.13,2013-09-21 23:10:00,
2013-09-21 16:15:00,64.2,55.4,29.73,East,86,1.0,1.0,73,0.00,,,0.52,Wunderground v.1.13,2013-09-21 23:15:00,
2013-09-21 16:20:00,64.3,55.5,29.73,SE,136,1.0,1.0,73,0.00,,,0.52,Wunderground v.1.13,2013-09-21 23:20:00,
2013-09-21 16:25:00,64.5,55.7,29.73,WNW,284,1.0,11.0,73,0.00,,,0.52,Wunderground v.1.13,2013-09-21 23:25:00,
2013-09-21 16:30:00,64.3,55.5,29.73,West,269,1.0,1.0,73,0.00,,,0.52,Wunderground v.1.13,2013-09-21 23:30:00,
2013-09-21 16:40:00,64.3,55.1,29.73,NW,309,1.0,11.0,72,0.00,,,0.52,Wunderground v.1.13,2013-09-21 23:40:00,
2013-09-21 16:45:00,64.5,55.3,29.73,SSE,150,1.0,1.0,72,0.00,,,0.52,Wunderground v.1.13,2013-09-21 23:45:00,
2013-09-21 16:50:00,64.5,54.5,29.73,WNW,303,1.0,1.0,70,0.00,,,0.52,Wunderground v.1.13,2013-09-21 23:50:00,
2013-09-21 16:55:00,64.7,53.1,29.73,NE,38,1.0,11.0,66,0.00,,,0.52,Wunderground v.1.13,2013-09-21 23:55:00,
2013-09-21 17:00:00,64.7,53.9,29.73,NNE,22,2.0,11.0,68,0.00,,,0.52,Wunderground v.1.13,2013-09-22 00:00:00,
2013-09-21 17:10:00,64.7,53.9,29.73,NW,317,2.0,7.0,68,0.00,,,0.52,Wunderground v.1.13,2013-09-22 00:10:00,
2013-09-21 17:15:00,64.5,53.3,29.73,East,79,2.0,2.0,67,0.00,,,0.52,Wunderground v.1.13,2013-09-22 00:15:00,
2013-09-21 17:20:00,64.3,53.5,29.73,NNW,329,2.0,2.0,68,0.00,,,0.52,Wunderground v.1.13,2013-09-22 00:20:00,
2013-09-21 17:25:00,64.2,54.2,29.73,East,96,2.0,2.0,70,0.00,,,0.52,Wunderground v.1.13,2013-09-22 00:25:00,
2013-09-21 17:30:00,64.0,54.0,29.73,North,360,2.0,2.0,70,0.00,,,0.52,Wunderground v.1.13,2013-09-22 00:30:00,
2013-09-21 17:40:00,63.7,53.7,29.73,NW,309,0.0,7.0,70,0.00,,,0.52,Wunderground v.1.13,2013-09-22 00:40:00,
2013-09-21 17:45:00,61.8,53.4,29.74,WNW,292,0.0,3.0,74,0.00,,,-99.99,WeatherLink 5.7,2013-09-22 00:45:00,
2013-09-21 17:50:00,63.5,54.3,29.73,WSW,251,1.0,7.0,72,0.00,,,0.52,Wunderground v.1.13,2013-09-22 00:50:00,
2013-09-21 17:55:00,63.4,53.8,29.73,NNW,327,1.0,1.0,71,0.00,,,0.52,Wunderground v.1.13,2013-09-22 00:55:00,
2013-09-21 18:00:00,63.4,54.6,29.73,NE,54,1.0,1.0,73,0.00,,,0.52,Wunderground v.1.13,2013-09-22 01:00:00,
2013-09-21 18:05:00,63.4,54.6,29.73,North,360,0.0,2.0,73,0.00,,,0.52,Wunderground v.1.13,2013-09-22 01:05:00,
2013-09-21 18:10:00,63.2,54.0,29.73,West,271,0.0,2.0,72,0.00,,,0.52,Wunderground v.1.13,2013-09-22 01:10:00,
2013-09-21 18:15:00,60.5,53.3,29.74,ENE,67,0.0,3.0,77,0.00,,,-99.99,WeatherLink 5.7,2013-09-22 01:15:00,
2013-09-21 18:20:00,62.9,53.7,29.74,NNW,331,1.0,1.0,72,0.00,,,0.52,Wunderground v.1.13,2013-09-22 01:20:00,
2013-09-21 18:25:00,62.7,53.5,29.74,NNE,24,0.0,2.0,72,0.00,,,0.52,Wunderground v.1.13,2013-09-22 01:25:00,
2013-09-21 18:30:00,62.4,53.3,29.74,WNW,303,0.0,2.0,72,0.00,,,0.52,Wunderground v.1.13,2013-09-22 01:30:00,
2013-09-21 18:40:00,62.1,53.3,29.74,WNW,303,0.0,3.0,73,0.00,,,0.52,Wunderground v.1.13,2013-09-22 01:40:00,
2013-09-21 18:45:00,61.8,53.8,29.74,WNW,301,0.0,3.0,75,0.00,,,0.52,Wunderground v.1.13,2013-09-22 01:45:00,
2013-09-21 18:55:00,61.3,54.0,29.74,NE,38,0.0,3.0,77,0.00,,,0.52,Wunderground v.1.13,2013-09-22 01:55:00,
2013-09-21 19:00:00,61.2,53.9,29.74,NE,39,0.0,3.0,77,0.00,,,0.52,Wunderground v.1.13,2013-09-22 02:00:00,
2013-09-21 19:05:00,60.9,53.6,29.74,ENE,63,0.0,3.0,77,0.00,,,0.52,Wunderground v.1.13,2013-09-22 02:05:00,
2013-09-21 19:10:00,60.7,53.4,29.74,ENE,63,0.0,3.0,77,0.00,,,0.52,Wunderground v.1.13,2013-09-22 02:10:00,
2013-09-21 19:15:00,60.5,53.3,29.74,ENE,63,0.0,3.0,77,0.00,,,0.52,Wunderground v.1.13,2013-09-22 02:15:00,
2013-09-21 19:20:00,60.4,53.5,29.74,ENE,63,0.0,3.0,78,0.00,,,0.52,Wunderground v.1.13,2013-09-22 02:20:00,
2013-09-21 19:30:00,59.9,53.0,29.75,ENE,63,0.0,3.0,78,0.00,,,0.52,Wunderground v.1.13,2013-09-22 02:30:00,
2013-09-21 19:40:00,59.6,53.1,29.75,ENE,63,0.0,1.0,79,0.00,,,0.52,Wunderground v.1.13,2013-09-22 02:40:00,
2013-09-21 19:45:00,59.5,53.3,29.76,ENE,63,0.0,1.0,80,0.00,,,0.52,Wunderground v.1.13,2013-09-22 02:45:00,
2013-09-21 19:50:00,59.2,53.0,29.76,ENE,63,0.0,1.0,80,0.00,,,0.52,Wunderground v.1.13,2013-09-22 02:50:00,
2013-09-21 19:55:00,59.0,52.8,29.76,ENE,63,0.0,1.0,80,0.00,,,0.52,Wunderground v.1.13,2013-09-22 02:55:00,
2013-09-21 20:00:00,56.7,53.2,29.78,North,-999,0.0,0.0,88,0.00,,,-99.99,WeatherLink 5.7,2013-09-22 03:00:00,
2013-09-21 20:05:00,58.6,52.8,29.76,ENE,63,0.0,0.0,81,0.00,,,0.52,Wunderground v.1.13,2013-09-22 03:05:00,
2013-09-21 20:10:00,58.3,52.8,29.76,ENE,63,0.0,0.0,82,0.00,,,0.52,Wunderground v.1.13,2013-09-22 03:10:00,
2013-09-21 20:15:00,58.0,53.2,29.77,ENE,63,0.0,0.0,84,0.00,,,0.52,Wunderground v.1.13,2013-09-22 03:15:00,
2013-09-21 20:20:00,57.8,53.0,29.77,ENE,63,0.0,0.0,84,0.00,,,0.52,Wunderground v.1.13,2013-09-22 03:20:00,
2013-09-21 20:25:00,57.5,53.0,29.77,ENE,63,0.0,0.0,85,0.00,,,0.52,Wunderground v.1.13,2013-09-22 03:25:00,
2013-09-21 20:30:00,55.9,52.7,29.79,North,-999,0.0,0.0,89,0.00,,,-99.99,WeatherLink 5.7,2013-09-22 03:30:00,
2013-09-21 20:35:00,57.3,53.5,29.77,ENE,63,0.0,0.0,87,0.00,,,0.52,Wunderground v.1.13,2013-09-22 03:35:00,
2013-09-21 20:40:00,57.2,53.7,29.77,ENE,63,0.0,0.0,88,0.00,,,0.52,Wunderground v.1.13,2013-09-22 03:40:00,
2013-09-21 20:45:00,57.2,53.7,29.77,ENE,63,0.0,0.0,88,0.00,,,0.52,Wunderground v.1.13,2013-09-22 03:45:00,
2013-09-21 20:50:00,57.0,53.5,29.77,ENE,63,0.0,0.0,88,0.00,,,0.52,Wunderground v.1.13,2013-09-22 03:50:00,
2013-09-21 20:55:00,56.9,53.4,29.77,ENE,63,0.0,0.0,88,0.00,,,0.52,Wunderground v.1.13,2013-09-22 03:55:00,
2013-09-21 21:00:00,56.7,53.2,29.78,ENE,63,0.0,0.0,88,0.00,,,0.52,Wunderground v.1.13,2013-09-22 04:00:00,
2013-09-21 21:05:00,56.6,53.1,29.78,ENE,63,0.0,0.0,88,0.00,,,0.52,Wunderground v.1.13,2013-09-22 04:05:00,
2013-09-21 21:10:00,56.5,53.0,29.78,ENE,63,0.0,0.0,88,0.00,,,0.52,Wunderground v.1.13,2013-09-22 04:10:00,
2013-09-21 21:15:00,56.3,52.8,29.79,ENE,63,0.0,0.0,88,0.00,,,0.52,Wunderground v.1.13,2013-09-22 04:15:00,
2013-09-21 21:20:00,56.2,52.7,29.79,ENE,63,0.0,0.0,88,0.00,,,0.52,Wunderground v.1.13,2013-09-22 04:20:00,
2013-09-21 21:25:00,56.0,52.5,29.79,ENE,63,0.0,0.0,88,0.00,,,0.52,Wunderground v.1.13,2013-09-22 04:25:00,
2013-09-21 21:30:00,55.9,52.7,29.79,ENE,63,0.0,0.0,89,0.00,,,0.52,Wunderground v.1.13,2013-09-22 04:30:00,
2013-09-21 21:35:00,55.7,52.5,29.79,ENE,63,0.0,0.0,89,0.00,,,0.52,Wunderground v.1.13,2013-09-22 04:35:00,
2013-09-21 21:40:00,55.7,52.5,29.79,ENE,63,0.0,0.0,89,0.00,,,0.52,Wunderground v.1.13,2013-09-22 04:40:00,
2013-09-21 21:45:00,55.6,52.7,29.79,ENE,63,0.0,0.0,90,0.00,,,0.52,Wunderground v.1.13,2013-09-22 04:45:00,
2013-09-21 21:50:00,55.6,52.7,29.79,ENE,63,0.0,0.0,90,0.00,,,0.52,Wunderground v.1.13,2013-09-22 04:50:00,
2013-09-21 21:55:00,55.4,52.5,29.79,ENE,63,0.0,0.0,90,0.00,,,0.52,Wunderground v.1.13,2013-09-22 04:55:00,
2013-09-21 22:00:00,55.4,52.8,29.79,ENE,63,0.0,0.0,91,0.00,,,0.52,Wunderground v.1.13,2013-09-22 05:00:00,
2013-09-21 22:10:00,55.3,52.7,29.79,ENE,63,0.0,0.0,91,0.00,,,0.52,Wunderground v.1.13,2013-09-22 05:10:00,
2013-09-21 22:15:00,54.4,52.1,29.80,North,-999,0.0,0.0,92,0.00,,,-99.99,WeatherLink 5.7,2013-09-22 05:15:00,
2013-09-21 22:20:00,55.1,52.5,29.79,ENE,63,0.0,0.0,91,0.00,,,0.52,Wunderground v.1.13,2013-09-22 05:20:00,
2013-09-21 22:25:00,55.1,52.8,29.79,ENE,63,0.0,0.0,92,0.00,,,0.52,Wunderground v.1.13,2013-09-22 05:25:00,
2013-09-21 22:30:00,55.1,52.8,29.79,ENE,63,0.0,0.0,92,0.00,,,0.52,Wunderground v.1.13,2013-09-22 05:30:00,
2013-09-21 22:35:00,55.0,52.7,29.79,ENE,63,0.0,0.0,92,0.00,,,0.52,Wunderground v.1.13,2013-09-22 05:35:00,
2013-09-21 22:40:00,55.0,52.7,29.79,ENE,63,0.0,0.0,92,0.00,,,0.52,Wunderground v.1.13,2013-09-22 05:40:00,
2013-09-21 22:45:00,55.1,52.8,29.79,ENE,63,0.0,0.0,92,0.00,,,0.52,Wunderground v.1.13,2013-09-22 05:45:00,
2013-09-21 22:55:00,55.0,52.7,29.79,ENE,63,0.0,0.0,92,0.00,,,0.52,Wunderground v.1.13,2013-09-22 05:55:00,
2013-09-21 23:00:00,54.8,52.5,29.80,ENE,63,0.0,0.0,92,0.00,,,0.52,Wunderground v.1.13,2013-09-22 06:00:00,
2013-09-21 23:10:00,54.5,52.2,29.80,ENE,63,0.0,0.0,92,0.00,,,0.52,Wunderground v.1.13,2013-09-22 06:10:00,
2013-09-21 23:15:00,54.4,52.1,29.80,ENE,63,0.0,0.0,92,0.00,,,0.52,Wunderground v.1.13,2013-09-22 06:15:00,
2013-09-21 23:20:00,54.4,52.1,29.80,ENE,63,0.0,0.0,92,0.00,,,0.52,Wunderground v.1.13,2013-09-22 06:20:00,
2013-09-21 23:30:00,54.1,51.8,29.80,ENE,63,0.0,0.0,92,0.00,,,0.52,Wunderground v.1.13,2013-09-22 06:30:00,
2013-09-21 23:35:00,53.9,51.6,29.80,ENE,63,0.0,0.0,92,0.00,,,0.52,Wunderground v.1.13,2013-09-22 06:35:00,
2013-09-21 23:40:00,53.8,51.5,29.80,ENE,63,0.0,0.0,92,0.00,,,0.52,Wunderground v.1.13,2013-09-22 06:40:00,
2013-09-21 23:45:00,53.8,51.5,29.80,ENE,63,0.0,0.0,92,0.00,,,0.52,Wunderground v.1.13,2013-09-22 06:45:00,
2013-09-21 23:50:00,53.6,51.3,29.80,ENE,63,0.0,0.0,92,0.00,,,0.52,Wunderground v.1.13,2013-09-22 06:50:00,